Home   Weather   Belgium   Antwerp   Past weeks
Flag for Belgium

Past Weather in Antwerp, Belgium — Yesterday and Last 2 Weeks

Currently: 72 °F. Passing clouds. (Weather station: Antwerp / Deurne, Belgium). See more current weather

Past Weather in Antwerp — Graph

°F

Antwerp Temperature Yesterday

Maximum temperature yesterday: 73 °F (at 12:20 am)
Minimum temperature yesterday: 63 °F (at 7:20 am)
Average temperature yesterday: 67 °F

High & Low Weather Summary for the Past Weeks

 TemperatureHumidityPressure
High88 °F (Jun 18, 4:20 pm)94% (Jun 6, 6:50 am)30.39 "Hg (Jun 6, 6:50 am)
Low52 °F (Jun 6, 6:20 am)30% (Jun 14, 3:20 pm)29.71 "Hg (Jun 20, 3:20 am)
Average68 °F64%30.09 "Hg
* Reported Jun 5 6:20 pm — Jun 20 6:50 pm, Antwerp. Weather by CustomWeather, © 2021

Note: Actual official high and low records may vary slightly from our data, if they occured in-between our weather recording intervals... More about our weather records

Antwerp Weather History for the Previous 24 Hours

Scroll right to see more
 ConditionsComfort  
Time TempWeatherWind HumidityBarometerVisibility
6:50 pm
Sun, Jun 20
73 °FPassing clouds.3 mph61%29.77 "HgN/A
6:20 pm73 °FPassing clouds.5 mph61%29.77 "HgN/A
5:50 pm73 °FPassing clouds.5 mph61%29.74 "HgN/A
5:20 pm73 °FPassing clouds.6 mph61%29.74 "HgN/A
4:50 pm73 °FPassing clouds.5 mph57%29.77 "HgN/A
4:20 pm75 °FPassing clouds.7 mph54%29.77 "HgN/A
3:50 pm75 °FScattered clouds.6 mph47%29.77 "HgN/A
3:20 pm73 °FScattered clouds.8 mph53%29.77 "HgN/A
2:50 pm73 °FScattered clouds.9 mph53%29.77 "HgN/A
2:20 pm75 °FScattered clouds.8 mph54%29.80 "HgN/A
1:50 pm73 °FScattered clouds.7 mph61%29.77 "HgN/A
1:20 pm73 °FScattered clouds.12 mph57%29.80 "HgN/A
12:50 pm72 °FScattered clouds.10 mph61%29.80 "HgN/A
12:20 pm73 °FScattered clouds.13 mph53%29.80 "HgN/A
11:50 am73 °FScattered clouds.13 mph57%29.80 "HgN/A
11:20 am70 °FScattered clouds.9 mph64%29.80 "HgN/A
10:50 am72 °FScattered clouds.14 mph61%29.80 "HgN/A
10:20 am70 °FPassing clouds.12 mph64%29.80 "HgN/A
9:50 am68 °FPassing clouds.9 mph73%29.77 "HgN/A
9:20 am66 °FScattered clouds.10 mph83%29.80 "Hg6 mi
8:50 am64 °FScattered clouds.8 mph83%29.77 "Hg4 mi
7:50 am63 °FFog.9 mph88%29.77 "Hg2 mi
7:20 am63 °FFog.8 mph88%29.77 "Hg2 mi
6:50 am63 °FFog.10 mph88%29.77 "Hg2 mi
6:20 am63 °FFog.12 mph88%29.77 "Hg2 mi
5:50 am63 °FFog.5 mph88%29.74 "Hg1 mi
5:20 am63 °FFog.3 mph88%29.74 "Hg1 mi
4:50 am63 °FFog.5 mph88%29.74 "Hg1 mi
4:20 am63 °FFog.5 mph88%29.74 "Hg2 mi
3:50 am63 °FLow clouds.3 mph88%29.74 "Hg2 mi
3:20 am63 °FLow clouds.8 mph88%29.71 "Hg2 mi
2:50 am63 °FMostly cloudy.10 mph88%29.74 "Hg4 mi
2:20 am63 °FMostly cloudy.10 mph88%29.74 "Hg3 mi
1:50 am63 °FLow clouds.10 mph94%29.74 "Hg3 mi
1:20 am64 °FDrizzle. Mostly cloudy.8 mph88%29.77 "Hg3 mi
12:50 am63 °FLight rain. Fog.6 mph94%29.77 "Hg2 mi
12:20 am64 °FLight rain. Fog.8 mph88%29.77 "Hg2 mi
11:50 pm
Sat, Jun 19
63 °FLight rain. Fog.10 mph94%29.74 "Hg2 mi
11:20 pm64 °FRain. Partly cloudy.7 mph88%29.80 "Hg2 mi
10:50 pm64 °FSprinkles. Passing clouds.9 mph88%29.77 "HgN/A
10:20 pm66 °FPassing clouds.9 mph83%29.80 "HgN/A
9:50 pm66 °FPassing clouds.6 mph83%29.83 "HgN/A
9:20 pm66 °FSunny.7 mph83%29.83 "Hg10 mi
8:50 pm66 °FPassing clouds.8 mph83%29.86 "HgN/A
8:20 pm68 °FSunny.8 mph78%29.86 "Hg10 mi
Weather by CustomWeather, © 2021

See weather overview